This is the latest recevied weather packets stored in our database for station/object VK3HAG. If no packets are shown the sender has not sent any weather packets the latest 10 day(s).
| Time | Temp. | Humidity | Pressure | Rain* | Wind** | Luminosity | Snow |
|---|---|---|---|---|---|---|---|
| 1777918505 | 12.22° C | 84% | 1014.3 hPa | 0 mm | - | - | - |
| 1777917604 | 12.78° C | 83% | 1014.1 hPa | 0 mm | - | - | - |
| 1777916704 | 12.78° C | 83% | 1014.1 hPa | 0 mm | - | - | - |
| 1777915804 | 12.78° C | 82% | 1014.1 hPa | 0 mm | - | - | - |
| 1777914905 | 12.78° C | 82% | 1014 hPa | 0 mm | - | - | - |
| 1777914005 | 12.78° C | 83% | 1013.8 hPa | 0 mm | - | - | - |
| 1777913104 | 12.22° C | 84% | 1013.7 hPa | 0 mm | - | - | - |
| 1777912204 | 12.22° C | 84% | 1013.7 hPa | 0 mm | - | - | - |
| 1777911304 | 12.22° C | 85% | 1013.6 hPa | 0 mm | - | - | - |
| 1777910404 | 12.22° C | 86% | 1013.5 hPa | 0 mm | - | - | - |
| 1777909504 | 12.22° C | 86% | 1013.5 hPa | 0 mm | - | - | - |
| 1777908604 | 12.22° C | 85% | 1013.4 hPa | 0 mm | - | - | - |
| 1777907704 | 12.22° C | 84% | 1013.2 hPa | 0 mm | - | - | - |
| 1777906804 | 12.22° C | 84% | 1013.1 hPa | 0 mm | - | - | - |
| 1777905904 | 12.78° C | 83% | 1013.2 hPa | 0 mm | - | - | - |
| 1777905004 | 12.78° C | 83% | 1013 hPa | 0 mm | - | - | - |
| 1777904104 | 13.33° C | 83% | 1012.8 hPa | 0 mm | - | - | - |
| 1777903213 | 13.33° C | 83% | 1012.8 hPa | 0 mm | - | - | - |
| 1777902304 | 13.33° C | 83% | 1012.8 hPa | 0 mm | - | - | - |
| 1777901404 | 13.33° C | 83% | 1012.6 hPa | 0 mm | - | - | - |
| 1777900504 | 13.33° C | 83% | 1012.6 hPa | 0 mm | - | - | - |
| 1777899604 | 13.33° C | 83% | 1012.5 hPa | 0 mm | - | - | - |
| 1777898705 | 13.33° C | 82% | 1012.4 hPa | 0 mm | - | - | - |
| 1777897805 | 13.89° C | 81% | 1012.3 hPa | 0 mm | - | - | - |
| 1777896905 | 14.44° C | 81% | 1012.3 hPa | 0 mm | - | - | - |
* Rain latest hour (hover to see other rain measurements)
** Current wind speed in m/s (hover to see current wind gust speed)